Location: Unspecified
(0.0000°N, 0.0000°E)
Time: 18:01:44
(UTC+00:00)

Hubble Space Telescope - Pass Details

Date: 20 March 2019
Orbit: 537 x 540 km, 28.5° (Epoch: 23 May)

Event Time Altitude Azimuth Distance (km) Brightness Sun altitude
Rises 19:11:18 0° 266° (W) 2,675 6.2 -16.0°
Reaches altitude 10° 19:14:01 10° 283° (WNW) 1,783 4.7 -16.6°
Maximum altitude 19:17:06 20° 331° (NNW) 1,266 3.0 -17.4°
Drops below altitude 10° 19:20:10 10° 20° (NNE) 1,781 3.2 -18.2°
Enters shadow 19:20:14 10° 20° (NNE) 1,798 3.2 -18.2°
